User: anonymous   Login
Location: Unspecified
(0.0000°N, 0.0000°E)
Time: 17:52:09
(UTC+00:00)
Language:

CUTE 1.7 & AOD 2 - Orbit

View from above orbital plane
View from above orbital plane
View from above satellite
View from above satellite

Ground track
Ground track

The orbit data is extracted from the following two-line orbital elements,

1 32785U 08021C   14303.21668172  .00003996  00000-0  46488-3 0  1037
2 32785 097.6836 349.9836 0015269 104.1711 300.2029 14.85763247352076
Epoch (UTC): 30 October 2014 05:12:01
Eccentricity: 0.0015269
inclination: 97.6836°
perigee height: 600 km
apogee height: 622 km
right ascension of ascending node: 349.9836°
argument of perigee: 104.1711°
revolutions per day: 14.85763247
mean anomaly at epoch: 300.2029°
orbit number at epoch: 35207

The dashed part of the orbit path shows where the satellite is in the earth's shadow,  

DLR